• In Austria
  • List of Countries
  • For 7 days
  • Water Temperature
  • Satellite Maps
  • Weather Map
  • News
  • Weather Widgets
  • user-avatar
    Login

    Hourly Weather Orlowce

    Today, 17 July, Tuesday

    Time Temperature Precipitation Wind Pressure Humidity
    00:00 +19°C° 0.3 mm 2 mps 755 mmHg 89%
    01:00 +19°C° 0 mm 2 mps 755 mmHg 91%
    02:00 +19°C° 0.9 mm 2 mps 755 mmHg 92%
    03:00 +19°C° 0.9 mm 2 mps 755 mmHg 93%
    04:00 +19°C° 0.9 mm 2 mps 755 mmHg 94%
    05:00 +19°C° 0.7 mm 3 mps 755 mmHg 93%
    06:00 +19°C° 0.7 mm 3 mps 755 mmHg 91%
    07:00 +20°C° 0.7 mm 3 mps 755 mmHg 90%
    08:00 +20°C° 0.7 mm 3 mps 755 mmHg 89%
    09:00 +21°C° 0.7 mm 4 mps 755 mmHg 87%
    10:00 +21°C° 0.7 mm 4 mps 754 mmHg 86%
    11:00 +21°C° 1.1 mm 4 mps 754 mmHg 86%
    12:00 +21°C° 1.1 mm 4 mps 754 mmHg 87%
    13:00 +21°C° 1.1 mm 4 mps 754 mmHg 88%
    14:00 +21°C° 1 mm 4 mps 754 mmHg 88%
    15:00 +21°C° 1 mm 4 mps 754 mmHg 87%
    16:00 +21°C° 1 mm 4 mps 754 mmHg 87%
    17:00 +21°C° 0.6 mm 4 mps 754 mmHg 88%
    18:00 +20°C° 0.6 mm 4 mps 754 mmHg 89%
    19:00 +20°C° 0.6 mm 4 mps 754 mmHg 90%
    20:00 +20°C° 0.2 mm 4 mps 754 mmHg 91%
    21:00 +20°C° 0.2 mm 3 mps 754 mmHg 92%
    22:00 +19°C° 0.2 mm 3 mps 754 mmHg 93%
    23:00 +19°C° 0.1 mm 3 mps 754 mmHg 94%

    Tomorrow, 18 July, Wednesday

    Time Temperature Precipitation Wind Pressure Humidity
    00:00 +19°C° 0.1 mm 4 mps 754 mmHg 95%
    01:00 +19°C° 0.1 mm 4 mps 754 mmHg 96%
    02:00 +19°C° 0.4 mm 4 mps 754 mmHg 96%
    03:00 +19°C° 0.4 mm 4 mps 754 mmHg 96%
    04:00 +19°C° 0.4 mm 4 mps 754 mmHg 96%
    05:00 +19°C° 1.8 mm 5 mps 754 mmHg 95%
    06:00 +19°C° 1.8 mm 5 mps 754 mmHg 94%
    07:00 +19°C° 1.8 mm 5 mps 754 mmHg 94%
    08:00 +20°C° 2.7 mm 5 mps 755 mmHg 94%
    09:00 +20°C° 2.7 mm 5 mps 755 mmHg 93%
    10:00 +20°C° 2.7 mm 5 mps 755 mmHg 93%
    11:00 +20°C° 1.3 mm 5 mps 755 mmHg 93%
    12:00 +20°C° 1.3 mm 5 mps 755 mmHg 92%
    13:00 +20°C° 1.3 mm 5 mps 756 mmHg 91%
    14:00 +21°C° 0.6 mm 5 mps 756 mmHg 90%
    15:00 +21°C° 0.6 mm 5 mps 756 mmHg 89%
    16:00 +21°C° 0.6 mm 4 mps 756 mmHg 88%
    17:00 +21°C° 0.5 mm 4 mps 756 mmHg 89%
    18:00 +20°C° 0.5 mm 4 mps 756 mmHg 90%
    19:00 +20°C° 0.5 mm 4 mps 756 mmHg 91%
    20:00 +20°C° 0.5 mm 4 mps 757 mmHg 92%
    21:00 +19°C° 0.5 mm 3 mps 757 mmHg 93%
    22:00 +19°C° 0.5 mm 3 mps 757 mmHg 94%
    23:00 +19°C° 0.6 mm 3 mps 757 mmHg 94%

    Day after tomorrow, 19 July, Thursday

    Time Temperature Precipitation Wind Pressure Humidity
    00:00 +19°C° 0.6 mm 3 mps 757 mmHg 94%
    01:00 +19°C° 0.6 mm 4 mps 757 mmHg 94%
    02:00 +19°C° 0.4 mm 4 mps 757 mmHg 94%
    03:00 +18°C° 0.4 mm 4 mps 757 mmHg 94%
    04:00 +18°C° 0.4 mm 4 mps 757 mmHg 93%
    05:00 +19°C° 0.2 mm 4 mps 757 mmHg 93%
    06:00 +19°C° 0.2 mm 4 mps 757 mmHg 92%
    07:00 +19°C° 0.2 mm 4 mps 757 mmHg 91%
    08:00 +20°C° 0.4 mm 4 mps 757 mmHg 89%
    09:00 +20°C° 0.4 mm 4 mps 757 mmHg 87%
    10:00 +21°C° 0.4 mm 5 mps 758 mmHg 85%
    11:00 +21°C° 0.6 mm 5 mps 758 mmHg 85%
    12:00 +21°C° 0.6 mm 5 mps 758 mmHg 85%
    13:00 +21°C° 0.6 mm 5 mps 758 mmHg 86%
    14:00 +21°C° 0.1 mm 5 mps 758 mmHg 86%
    15:00 +21°C° 0.1 mm 5 mps 758 mmHg 85%
    16:00 +21°C° 0.1 mm 5 mps 758 mmHg 85%
    17:00 +20°C° 0.1 mm 5 mps 758 mmHg 87%
    18:00 +20°C° 0.1 mm 4 mps 758 mmHg 89%
    19:00 +19°C° 0.1 mm 4 mps 758 mmHg 90%
    20:00 +19°C° 0.1 mm 4 mps 758 mmHg 91%
    21:00 +18°C° 0.1 mm 3 mps 758 mmHg 92%
    22:00 +18°C° 0.1 mm 3 mps 759 mmHg 93%
    23:00 +18°C° 0 mm 3 mps 759 mmHg 93%

    20 July, Friday

    Time Temperature Precipitation Wind Pressure Humidity
    00:00 +17°C° 0 mm 3 mps 759 mmHg 92%
    01:00 +17°C° 0 mm 3 mps 759 mmHg 92%
    02:00 +17°C° 0 mm 3 mps 759 mmHg 92%
    03:00 +17°C° 0 mm 2 mps 758 mmHg 92%
    04:00 +16°C° 0 mm 2 mps 758 mmHg 92%
    05:00 +17°C° 0 mm 3 mps 758 mmHg 88%
    06:00 +18°C° 0 mm 3 mps 758 mmHg 84%
    07:00 +19°C° 0 mm 3 mps 758 mmHg 81%
    08:00 +21°C° 0 mm 3 mps 758 mmHg 74%
    09:00 +22°C° 0 mm 3 mps 759 mmHg 67%
    10:00 +25°C° 0 mm 3 mps 759 mmHg 60%
    11:00 +26°C° 0 mm 4 mps 758 mmHg 58%
    12:00 +26°C° 0 mm 4 mps 758 mmHg 56%
    13:00 +27°C° 0 mm 4 mps 758 mmHg 55%
    14:00 +27°C° 0 mm 4 mps 758 mmHg 55%
    15:00 +27°C° 0 mm 4 mps 758 mmHg 55%
    16:00 +27°C° 0 mm 4 mps 758 mmHg 55%
    17:00 +26°C° 0 mm 4 mps 758 mmHg 60%
    18:00 +25°C° 0 mm 3 mps 757 mmHg 64%
    19:00 +24°C° 0 mm 3 mps 757 mmHg 68%
    20:00 +21°C° 0 mm 3 mps 758 mmHg 72%
    21:00 +19°C° 0 mm 2 mps 758 mmHg 75%
    22:00 +18°C° 0 mm 2 mps 758 mmHg 78%
    23:00 +17°C° 0 mm 2 mps 758 mmHg 77%

    21 July, Saturday

    Time Temperature Precipitation Wind Pressure Humidity
    00:00 +16°C° 0 mm 2 mps 758 mmHg 76%
    01:00 +16°C° 0 mm 1 mps 758 mmHg 75%
    02:00 +15°C° 0 mm 1 mps 758 mmHg 75%
    03:00 +15°C° 0 mm 2 mps 758 mmHg 75%
    04:00 +14°C° 0 mm 2 mps 758 mmHg 76%
    05:00 +16°C° 0 mm 2 mps 758 mmHg 73%
    06:00 +17°C° 0 mm 2 mps 758 mmHg 70%
    07:00 +19°C° 0 mm 2 mps 758 mmHg 68%
    08:00 +20°C° 0 mm 2 mps 758 mmHg 62%
    09:00 +22°C° 0 mm 3 mps 758 mmHg 57%
    10:00 +25°C° 0 mm 3 mps 758 mmHg 51%
    11:00 +26°C° 0 mm 3 mps 758 mmHg 49%
    12:00 +26°C° 0 mm 3 mps 758 mmHg 47%
    13:00 +27°C° 0 mm 3 mps 757 mmHg 45%
    14:00 +27°C° 0 mm 3 mps 757 mmHg 46%
    15:00 +27°C° 0 mm 3 mps 757 mmHg 48%
    16:00 +27°C° 0 mm 3 mps 757 mmHg 50%
    17:00 +26°C° 0 mm 3 mps 757 mmHg 55%
    18:00 +25°C° 0 mm 3 mps 757 mmHg 60%
    19:00 +24°C° 0 mm 3 mps 757 mmHg 65%
    20:00 +21°C° 0 mm 2 mps 757 mmHg 70%
    21:00 +19°C° 0 mm 2 mps 757 mmHg 74%
    22:00 +18°C° 0 mm 2 mps 758 mmHg 79%
    23:00 +17°C° 0 mm 2 mps 758 mmHg 79%

    22 July, Sunday

    Time Temperature Precipitation Wind Pressure Humidity
    00:00 +18°C° 0 mm 1 mps 758 mmHg 80%
    01:00 +16°C° 0 mm 1 mps 758 mmHg 80%
    02:00 +16°C° 0 mm 1 mps 758 mmHg 80%
    03:00 +16°C° 0 mm 1 mps 758 mmHg 81%
    04:00 +15°C° 0 mm 1 mps 758 mmHg 81%
    05:00 +18°C° 0 mm 1 mps 758 mmHg 77%
    06:00 +19°C° 0 mm 1 mps 758 mmHg 72%
    07:00 +21°C° 0 mm 1 mps 758 mmHg 68%
    08:00 +21°C° 0 mm 2 mps 758 mmHg 64%
    09:00 +23°C° 0 mm 2 mps 758 mmHg 61%
    10:00 +24°C° 0 mm 2 mps 758 mmHg 57%
    11:00 +25°C° 0.2 mm 3 mps 758 mmHg 56%
    12:00 +26°C° 0.2 mm 3 mps 758 mmHg 55%
    13:00 +26°C° 0.2 mm 3 mps 758 mmHg 54%
    14:00 +26°C° 0.3 mm 3 mps 758 mmHg 55%
    15:00 +26°C° 0.3 mm 3 mps 757 mmHg 55%
    16:00 +26°C° 0.3 mm 3 mps 757 mmHg 56%
    17:00 +25°C° 0.1 mm 3 mps 757 mmHg 60%
    18:00 +24°C° 0.1 mm 3 mps 758 mmHg 65%
    19:00 +23°C° 0.1 mm 2 mps 758 mmHg 69%
    20:00 +21°C° 0 mm 2 mps 758 mmHg 74%
    21:00 +20°C° 0 mm 2 mps 758 mmHg 79%
    22:00 +19°C° 0 mm 1 mps 759 mmHg 84%
    23:00 +19°C° 0 mm 1 mps 759 mmHg 86%
    Show more